{"data":{"norad_id":39233,"intl_designator":"2013-044A","name":"ES'HAIL 1","alt_names":[],"object_type":"PAYLOAD","status":"ACTIVE","operator":null,"country":"AB","launch_date":"2013-08-29","launch_site_code":"FRGUI","launch_vehicle":null,"mission":null,"orbit_class":"UNKNOWN","rcs_meters":12.5119,"size_class":null,"mass_kg":null,"dimensions":null,"purposes":["comms"],"wikipedia_slug":null,"has_3d_model":false,"image_url":null,"decayed_at":null,"tle_current":{"epoch":"2026-09-20T01:38:46.409280Z","epoch_age_seconds":62942,"freshness":"FRESH","line1":"1 39233U 13044A   26263.06859270  .00000139  00000+0  00000+0 0  9999","line2":"2 39233   0.0513   2.6644 0002306 170.7820 235.7192  1.00274561 47577","mean_motion":1.00274561,"eccentricity":0.0002306,"inclination_deg":0.0513,"raan_deg":2.6644,"arg_perigee_deg":170.782,"mean_anomaly_deg":235.7192,"bstar":0,"rev_number":4757,"period_min":1436.0571471363,"perigee_km":35776.093757834,"apogee_km":35795.539773311,"semimajor_km":42163.953765572,"source":"CELESTRAK","updated_at":"2026-09-20T09:00:35.205821Z"}}}